Regional Weather Roundup
Issued by NWS

Home | Current Version | Previous Version | Graphics & Text | Print | Product List | Glossary On
Versions: 1 2 3 4 5 6 7 8 9 10 11 12 13 14 15 16 17 18 19 20 21 22 23 24 25 26 27 28 29 30 31 32 33 34 35 36 37 38 39 40 41 42 43 44 45 46 47 48 49 50
000
ASUS43 KOAX 240610
RWRNE

WEATHER ROUNDUP FOR NEBRASKA
NATIONAL WEATHER SERVICE OMAHA NE
100 AM CDT THU JUL 24 2014

NOTES: SATELLITE DATA IS BEING USED TO AUGMENT CLOUD COVER ABOVE
       12000 FEET.
       "FAIR" INDICATES FEW OR NO CLOUDS BELOW 12,000 FEET WITH NO
       SIGNIFICANT WEATHER AND/OR OBSTRUCTIONS TO VISIBILITY.

  * THESE STATIONS DO NOT REPORT WEATHER SUCH AS RAIN...SNOW OR FOG.

NEZ001>004-019>022-054>056-240700-
NEBRASKA PANHANDLE

CITY           SKY/WX    TMP DP  RH WIND       PRES   REMARKS
SCOTTSBLUFF    CLEAR     72  65  78 E14       30.08S
6HR MIN TEMP:  72; 6HR MAX TEMP:  90;

ALLIANCE       CLEAR     70  64  81 S25G31    30.10S
6HR MIN TEMP:  70; 6HR MAX TEMP:  93;

CHADRON        PTCLDY    77  64  64 S23G35    30.00S
6HR MIN TEMP:  77; 6HR MAX TEMP:  94;

KIMBALL        PTCLDY    70  49  47 SE9       30.17S
SIDNEY         PTCLDY    72  61  68 SE13      30.17S
6HR MIN TEMP:  71; 6HR MAX TEMP:  94;

$$

NEZ057>060-069>072-079>082-240700-
SOUTHWEST NEBRASKA

CITY           SKY/WX    TMP DP  RH WIND       PRES   REMARKS
NORTH PLATTE   CLEAR     64  61  90 E8        30.15S
6HR MIN TEMP:  64; 6HR MAX TEMP:  80;

IMPERIAL       CLEAR     68  63  84 SE14      30.16S
6HR MIN TEMP:  68; 6HR MAX TEMP:  85;

LEXINGTON      CLEAR     67  62  83 SE9       30.16F
MCCOOK         CLEAR     69  63  81 SE8       30.16R
6HR MIN TEMP:  68; 6HR MAX TEMP:  81;

OGALLALA       CLEAR     68  62  82 SE7       30.15F
$$

NEZ005>010-023>029-035>040-094-240700-
NORTH CENTRAL NEBRASKA

CITY           SKY/WX    TMP DP  RH WIND       PRES   REMARKS
VALENTINE      PTCLDY    70  59  68 SE12      30.10F
6HR MIN TEMP:  70; 6HR MAX TEMP:  86;

AINSWORTH      CLEAR     68  58  70 SE14      30.13F
BROKEN BOW     CLEAR     65  61  87 SE8       30.16S
6HR MIN TEMP:  64; 6HR MAX TEMP:  81;

O`NEILL        PTCLDY    67  58  73 SE7       30.16F
ORD            CLEAR     66  60  81 SE6       30.15S
6HR MIN TEMP:  64; 6HR MAX TEMP:  81;

THEDFORD       CLEAR     68  61  78 SE12      30.14F
$$

NEZ041-046>049-061>064-073>077-083>087-240700-
SOUTH CENTRAL NEBRASKA

CITY           SKY/WX    TMP DP  RH WIND       PRES   REMARKS
GRAND ISLAND   PTCLDY    67  60  78 E7        30.17S
6HR MIN TEMP:  66; 6HR MAX TEMP:  81;

HASTINGS       PTCLDY    71  58  63 SE10      30.16F
6HR MIN TEMP:  71; 6HR MAX TEMP:  81;

HEBRON         CLEAR     64  59  85 CALM      30.16S
HOLDREGE       CLEAR     66  60  79 SE8       30.16S
KEARNEY *      PTCLDY    66  61  82 SE6       30.16F
YORK           PTCLDY    66  63  88 SE5       30.17F
$$

NEZ011>018-030>034-042>045-240700-
NORTHEAST NEBRASKA

CITY           SKY/WX    TMP DP  RH WIND       PRES   REMARKS
NORFOLK        CLEAR     65  59  81 SE6       30.16F
6HR MIN TEMP:  65; 6HR MAX TEMP:  81;

ALBION         CLEAR     61  58  90 CALM      30.16F
COLUMBUS *     CLEAR     64  57  77 E5        30.16F
TEKAMAH        CLEAR     64  59  83 CALM      30.16S
6HR MIN TEMP:  64; 6HR MAX TEMP:  82;

WAYNE          CLEAR     62  60  91 CALM      30.17S
$$

NEZ050>053-065>068-078-088>093-240700-
SOUTHEAST NEBRASKA

CITY           SKY/WX    TMP DP  RH WIND       PRES   REMARKS
LINCOLN        CLEAR     68  60  75 CALM      30.16F
6HR MIN TEMP:  68; 6HR MAX TEMP:  85;

OMAHA EPPLEY   CLEAR     71  61  70 SE7       30.16F
6HR MIN TEMP:  71; 6HR MAX TEMP:  83;

BEATRICE       CLEAR     66  62  86 CALM      30.16F
FALLS CITY     CLEAR     66  64  93 E3        30.15S
6HR MIN TEMP:  66; 6HR MAX TEMP:  83;

$$

NEZ044-045-051>053-067-240700-
OMAHA AREA

CITY           SKY/WX    TMP DP  RH WIND       PRES   REMARKS
OMAHA EPPLEY   CLEAR     71  61  70 SE7       30.16F
6HR MIN TEMP:  71; 6HR MAX TEMP:  83;

OFFUTT AFB     MOCLDY    66  65  97 CALM      30.16S
$$


USA.gov is the U.S. government's official web portal to all federal, state and local government web resources and services.